THORAD AGENA D DEB, 42531

Orbit data source: Space-Track

THORAD AGENA D DEB, 42531 is space debris in SSO originally from a launch on Wed, 08 Apr 1970 UTC launched from the Air Force Western Test Range (AFWTR). Debris objects in space refer to the collection of defunct objects orbiting the Earth. Examples of debris include non-operational satellites, rocket bodies, and fragments generated from explosions, collisions, or faulty payload assembly.

Loading next visibility...
Identifier
42531, 1970-025SM
Orbit
SSO
Last TLE update
4 days ago
Origin
Manufacturer
Unknown
Mission
Spacecraft
Bus & Motor
Unknown
Mass
Unknown
Launch date (UTC)
1970-04-08 (55 years ago)
Launch vehicle
Unknown
Launch site
Air Force Western Test Range (AFWTR)
Object type
Payload
Rocket body
Debris
Shape & HBR
Unknown
Radar Cross Section
Small (<0.1 m²)

Expand to show TLE details & history

TLE from 4 days ago
0 THORAD AGENA D DEB
1 42531U 70025SM  25178.55690111  .00000140  00000-0  28592-3 0  9994
2 42531  99.7671 295.7706 0053600  79.0070 344.4295 13.50107049570956
Epoch: 2025-06-27T13:21Z
TLE epoch observation values (Epoch: 2025-06-27T13:21:56.255Z)
Latitude
61.75839°
Longitude
160.78634°
Altitude
1,043.892 km
Speed
7.355 km/s
True Right ascension
18h 28m 42s
True Declination
61° 37' 13"
Sunlit
Object was in daylight at epoch
Visualization orbit readout
Latitude
65.36915°
Longitude
24.80683°
Altitude
1,053.585 km
Speed
7.346 km/s
Apparent Right ascension
04h 58m 12s
Apparent Declination
27° 02' 32"
Sunlit
Object is in daylight
Visualization observer readout
Local Sidereal Time
14:35:52
Azimuth
327.501° NNW
Elevation
-15.298°
Doppler factor
1
Orbital elements
Apogee altitude
1,109.087 km
Perigee altitude
1,029.252 km
Semi-major axis
7,447.306 km
Eccentricity
0.00536
Inclination
99.7671°
RAAN
295.7706°
Arg. of periapsis
79.007°
True anomaly
Unknown
Mean anomaly
344.4295°
Eccentric anomaly
Unknown
Mean motion
3.3771 °/min
Orbital period
106.6 mins
BSTAR
0.00028592
Loading maneuver chart data...
Loading SW <> Apogee altitude chart data...

THORAD AGENA D DEB Visibility forecast

Observer location: undefined°, undefined°

Span
Click to sort rows by Start time (UTC) header in descending order
Start Az.
Max El. time (UTC)
Max El. Az.
Max El.
End time (UTC)
End Az.
7 mins2025-07-01 06:09:39.221Z93.494° ESE2025-07-01 06:12:39.221Z62.591° ENE17.583°2025-07-01 06:16:39.221Z20.871° NNE
11 mins2025-07-01 07:52:39.221Z171.841° S2025-07-01 07:57:39.221Z275.533° WNW44.018°2025-07-01 08:03:39.221Z341.838° N
4 mins2025-07-01 19:06:39.221Z79.098° E2025-07-01 19:07:39.221Z89.007° E13.063°2025-07-01 19:10:39.221Z117.058° SE
11 mins2025-07-01 20:48:39.221Z14.682° NNE2025-07-01 20:53:39.221Z227.963° WSW44.986°2025-07-01 20:59:39.221Z197.201° SSW
5 mins2025-07-01 22:35:39.221Z326.032° NNW2025-07-01 22:37:39.221Z305.644° NW15.033°2025-07-01 22:40:39.221Z275.76° WNW
|